BMI19C EGAA-EGCC

Flight info

Callsign BMI19C
Flight time 0h 32m
Altitude 25000
Route LISBO L603 PEPOD Q38 MAKUX
Aircraft A319/M-SDE3FGHIRWY/LB1

Departure

Time 2026-05-06 20:33
Airport Belfast International Airport (EGAA)

Arrival

Time 2026-05-06 21:05
Airport Manchester Airport (EGCC)
Time Latitude Longitude Altitude Speed Heading
2026-05-06 20:25 54.65951 -6.21919 277 ft 0 kts 65°
2026-05-06 20:26 54.65951 -6.21920 277 ft 1 kts 65°
2026-05-06 20:26 54.65945 -6.21940 277 ft 2 kts 65°
2026-05-06 20:26 54.65940 -6.21961 277 ft 2 kts 65°
2026-05-06 20:27 54.65934 -6.21986 277 ft 2 kts 79°
2026-05-06 20:27 54.65932 -6.22013 277 ft 2 kts 94°
2026-05-06 20:27 54.65935 -6.22039 277 ft 2 kts 109°
2026-05-06 20:27 54.65942 -6.22063 277 ft 2 kts 125°
2026-05-06 20:28 54.65951 -6.22082 277 ft 2 kts 140°
2026-05-06 20:28 54.65963 -6.22097 277 ft 1 kts 154°
2026-05-06 20:28 54.65969 -6.22101 277 ft 1 kts 158°
2026-05-06 20:28 54.65970 -6.22101 277 ft 0 kts 158°
2026-05-06 20:30 54.65921 -6.22065 276 ft 12 kts 154°
2026-05-06 20:30 54.65849 -6.22017 276 ft 13 kts 182°
2026-05-06 20:31 54.65790 -6.22105 276 ft 15 kts 243°
2026-05-06 20:31 54.65767 -6.22285 276 ft 20 kts 261°
2026-05-06 20:31 54.65748 -6.22536 276 ft 21 kts 265°
2026-05-06 20:31 54.65736 -6.22772 277 ft 14 kts 261°
2026-05-06 20:32 54.65696 -6.22814 276 ft 0 kts 158°
2026-05-06 20:32 54.65587 -6.22752 277 ft 57 kts 163°
2026-05-06 20:32 54.64892 -6.22370 285 ft 144 kts 162°
2026-05-06 20:33 54.63785 -6.21775 782 ft 175 kts 162°
2026-05-06 20:33 54.62631 -6.21148 1789 ft 179 kts 162°
2026-05-06 20:33 54.61527 -6.20339 2769 ft 172 kts 151°
2026-05-06 20:33 54.60532 -6.19144 3464 ft 182 kts 140°
2026-05-06 20:34 54.59512 -6.17602 3908 ft 206 kts 142°
2026-05-06 20:34 54.58296 -6.16014 4438 ft 227 kts 146°
2026-05-06 20:34 54.57052 -6.14470 5564 ft 220 kts 148°
2026-05-06 20:34 54.55830 -6.12983 6656 ft 214 kts 148°
2026-05-06 20:35 54.54620 -6.11528 7526 ft 216 kts 149°
2026-05-06 20:35 54.53366 -6.10024 8384 ft 220 kts 148°
2026-05-06 20:35 54.52185 -6.08275 9222 ft 226 kts 139°
2026-05-06 20:35 54.51132 -6.06232 10018 ft 232 kts 135°
2026-05-06 20:36 54.50077 -6.04044 10840 ft 235 kts 135°
2026-05-06 20:36 54.49034 -6.01860 11621 ft 239 kts 135°
2026-05-06 20:36 54.47949 -5.99599 12362 ft 244 kts 135°
2026-05-06 20:36 54.46851 -5.97317 13083 ft 248 kts 136°
2026-05-06 20:37 54.45722 -5.94974 13822 ft 252 kts 136°
2026-05-06 20:37 54.44602 -5.92659 14528 ft 255 kts 137°
2026-05-06 20:37 54.43420 -5.90222 15243 ft 258 kts 138°
2026-05-06 20:37 54.42192 -5.87695 15958 ft 262 kts 138°
2026-05-06 20:38 54.40966 -5.85176 16648 ft 265 kts 139°
2026-05-06 20:38 54.39700 -5.82578 17339 ft 269 kts 139°
2026-05-06 20:38 54.38414 -5.79943 18020 ft 272 kts 140°
2026-05-06 20:38 54.37066 -5.77184 18701 ft 276 kts 140°
2026-05-06 20:39 54.35737 -5.74464 19353 ft 279 kts 141°
2026-05-06 20:39 54.34395 -5.71724 19989 ft 283 kts 141°
2026-05-06 20:39 54.33021 -5.68921 20626 ft 286 kts 141°
2026-05-06 20:39 54.31664 -5.66157 21226 ft 290 kts 142°
2026-05-06 20:40 54.30332 -5.63449 21789 ft 294 kts 142°
2026-05-06 20:40 54.28983 -5.60708 22340 ft 298 kts 142°
2026-05-06 20:40 54.27624 -5.57947 22882 ft 302 kts 142°
2026-05-06 20:40 54.26292 -5.55000 23422 ft 310 kts 139°
2026-05-06 20:41 54.25047 -5.52059 23932 ft 315 kts 138°
2026-05-06 20:41 54.23795 -5.49067 24430 ft 319 kts 138°
2026-05-06 20:41 54.22487 -5.45954 24854 ft 327 kts 139°
2026-05-06 20:41 54.21131 -5.42769 24989 ft 345 kts 138°
2026-05-06 20:42 54.19673 -5.39357 24995 ft 361 kts 137°
2026-05-06 20:42 54.18235 -5.35954 25000 ft 365 kts 137°
2026-05-06 20:42 54.16736 -5.32413 25007 ft 382 kts 137°
2026-05-06 20:42 54.15089 -5.28543 25011 ft 402 kts 137°
2026-05-06 20:43 54.13387 -5.24542 25014 ft 420 kts 136°
2026-05-06 20:43 54.11625 -5.20401 25016 ft 436 kts 136°
2026-05-06 20:43 54.09786 -5.16081 25018 ft 451 kts 135°
2026-05-06 20:43 54.07880 -5.11613 25019 ft 465 kts 135°
2026-05-06 20:44 54.06077 -5.07392 25021 ft 477 kts 135°
2026-05-06 20:44 54.04083 -5.02735 25021 ft 488 kts 135°
2026-05-06 20:44 54.02040 -4.97971 25022 ft 497 kts 135°
2026-05-06 20:44 54.00027 -4.93288 25021 ft 502 kts 135°
2026-05-06 20:45 53.97992 -4.88562 25021 ft 505 kts 135°
2026-05-06 20:45 53.95877 -4.83661 25021 ft 506 kts 135°
2026-05-06 20:45 53.93760 -4.78770 25021 ft 507 kts 135°
2026-05-06 20:45 53.91655 -4.73926 25022 ft 513 kts 135°
2026-05-06 20:46 53.89494 -4.68974 25024 ft 518 kts 135°
2026-05-06 20:46 53.87373 -4.64143 25023 ft 519 kts 135°
2026-05-06 20:46 53.85211 -4.59223 25022 ft 520 kts 135°
2026-05-06 20:46 53.83098 -4.54410 25022 ft 520 kts 135°
2026-05-06 20:47 53.80928 -4.49470 25022 ft 520 kts 135°
2026-05-06 20:47 53.78733 -4.44473 25021 ft 517 kts 135°
2026-05-06 20:47 53.76646 -4.39734 24590 ft 517 kts 135°
2026-05-06 20:47 53.74519 -4.34921 23979 ft 517 kts 135°
2026-05-06 20:48 53.72418 -4.30154 23425 ft 511 kts 135°
2026-05-06 20:48 53.70334 -4.25423 22870 ft 506 kts 135°
2026-05-06 20:48 53.68201 -4.20601 22299 ft 501 kts 135°
2026-05-06 20:48 53.66117 -4.15908 21751 ft 495 kts 135°
2026-05-06 20:49 53.64080 -4.11207 21327 ft 496 kts 130°
2026-05-06 20:49 53.62382 -4.06003 20860 ft 498 kts 121°
2026-05-06 20:49 53.61011 -4.00677 20147 ft 492 kts 118°
2026-05-06 20:49 53.59713 -3.95283 19373 ft 485 kts 117°
2026-05-06 20:50 53.58474 -3.90094 18707 ft 476 kts 117°
2026-05-06 20:50 53.57219 -3.84906 18054 ft 468 kts 118°
2026-05-06 20:50 53.55966 -3.79809 17524 ft 458 kts 118°
2026-05-06 20:50 53.54748 -3.74905 17120 ft 445 kts 118°
2026-05-06 20:51 53.53553 -3.70110 17031 ft 425 kts 118°
2026-05-06 20:51 53.52404 -3.65519 17026 ft 424 kts 118°
2026-05-06 20:51 53.51241 -3.60901 17023 ft 425 kts 118°
2026-05-06 20:51 53.50069 -3.56253 17022 ft 425 kts 118°
2026-05-06 20:52 53.48914 -3.51669 17019 ft 416 kts 118°
2026-05-06 20:52 53.47803 -3.47238 16904 ft 400 kts 118°
2026-05-06 20:52 53.46706 -3.42901 16437 ft 396 kts 118°
2026-05-06 20:52 53.45633 -3.38680 15927 ft 393 kts 118°
2026-05-06 20:53 53.44566 -3.34479 15339 ft 374 kts 119°
2026-05-06 20:53 53.43576 -3.30525 14768 ft 367 kts 118°
2026-05-06 20:53 53.42581 -3.26568 14189 ft 366 kts 118°
2026-05-06 20:53 53.41563 -3.22574 13598 ft 362 kts 118°
2026-05-06 20:54 53.40591 -3.18785 13021 ft 344 kts 118°
2026-05-06 20:54 53.39685 -3.15269 12460 ft 329 kts 118°
2026-05-06 20:54 53.38779 -3.11773 11875 ft 316 kts 118°
2026-05-06 20:54 53.37909 -3.08416 11294 ft 306 kts 118°
2026-05-06 20:55 53.37075 -3.05170 10716 ft 297 kts 118°
2026-05-06 20:55 53.36266 -3.01980 10129 ft 287 kts 118°
2026-05-06 20:55 53.35499 -2.98931 9551 ft 278 kts 118°
2026-05-06 20:55 53.34759 -2.95980 8975 ft 271 kts 118°
2026-05-06 20:56 53.34035 -2.93094 8423 ft 262 kts 118°
2026-05-06 20:56 53.33337 -2.90312 8098 ft 246 kts 118°
2026-05-06 20:56 53.32682 -2.87680 8054 ft 240 kts 118°
2026-05-06 20:56 53.32061 -2.85188 8050 ft 239 kts 118°
2026-05-06 20:57 53.31426 -2.82639 7852 ft 239 kts 118°
2026-05-06 20:57 53.30793 -2.80118 7581 ft 236 kts 118°
2026-05-06 20:57 53.30143 -2.77553 7302 ft 236 kts 118°
2026-05-06 20:57 53.29499 -2.75047 6872 ft 236 kts 118°
2026-05-06 20:58 53.28834 -2.72513 6416 ft 235 kts 118°
2026-05-06 20:58 53.28322 -2.70597 6153 ft 229 kts 118°
2026-05-06 20:58 53.27665 -2.68164 5810 ft 224 kts 118°
2026-05-06 20:58 53.27017 -2.65801 5458 ft 219 kts 118°
2026-05-06 20:59 53.26385 -2.63527 5281 ft 211 kts 118°
2026-05-06 20:59 53.25611 -2.61375 4662 ft 218 kts 137°
2026-05-06 20:59 53.24338 -2.60060 4192 ft 211 kts 155°
2026-05-06 20:59 53.22999 -2.59180 3848 ft 201 kts 158°
2026-05-06 21:00 53.21757 -2.58194 3500 ft 193 kts 134°
2026-05-06 21:00 53.21198 -2.56367 3385 ft 195 kts 96°
2026-05-06 21:00 53.21530 -2.54178 3098 ft 200 kts 56°
2026-05-06 21:00 53.22496 -2.52447 3004 ft 198 kts 41°
2026-05-06 21:01 53.23473 -2.50836 3001 ft 198 kts 44°
2026-05-06 21:01 53.24421 -2.49157 2925 ft 186 kts 45°
2026-05-06 21:01 53.25251 -2.47557 2752 ft 174 kts 47°
2026-05-06 21:01 53.25981 -2.46067 2588 ft 159 kts 48°
2026-05-06 21:02 53.26665 -2.44643 2367 ft 150 kts 48°
2026-05-06 21:02 53.27316 -2.43284 2152 ft 150 kts 49°
2026-05-06 21:02 53.27975 -2.41911 1938 ft 150 kts 49°
2026-05-06 21:02 53.28638 -2.40529 1724 ft 150 kts 49°
2026-05-06 21:03 53.29276 -2.39201 1500 ft 137 kts 49°
2026-05-06 21:03 53.29835 -2.38038 1307 ft 127 kts 49°
2026-05-06 21:03 53.30394 -2.36881 1142 ft 127 kts 49°
2026-05-06 21:03 53.30961 -2.35704 970 ft 127 kts 50°
2026-05-06 21:04 53.31522 -2.34539 803 ft 126 kts 51°
2026-05-06 21:04 53.32081 -2.33375 631 ft 126 kts 51°
2026-05-06 21:04 53.32635 -2.32229 466 ft 126 kts 51°
2026-05-06 21:04 53.33199 -2.31066 303 ft 126 kts 52°
2026-05-06 21:05 53.33723 -2.29981 259 ft 94 kts 51°
2026-05-06 21:05 53.34020 -2.29367 259 ft 47 kts 51°
2026-05-06 21:05 53.34216 -2.28940 259 ft 43 kts 50°
2026-05-06 21:05 53.34421 -2.28609 259 ft 34 kts 31°
2026-05-06 21:06 53.34624 -2.28452 258 ft 21 kts 17°
2026-05-06 21:06 53.34739 -2.28346 259 ft 17 kts 55°
2026-05-06 21:06 53.34814 -2.28185 259 ft 16 kts 47°
2026-05-06 21:06 53.34891 -2.28032 258 ft 19 kts 50°
2026-05-06 21:07 53.34982 -2.27845 258 ft 21 kts 55°
2026-05-06 21:07 53.35075 -2.27651 258 ft 20 kts 53°
2026-05-06 21:07 53.35166 -2.27457 259 ft 20 kts 51°
2026-05-06 21:07 53.35257 -2.27266 258 ft 20 kts 51°
2026-05-06 21:08 53.35346 -2.27084 259 ft 20 kts 49°
2026-05-06 21:08 53.35438 -2.26897 259 ft 20 kts 52°
2026-05-06 21:08 53.35527 -2.26718 259 ft 17 kts 50°
2026-05-06 21:08 53.35615 -2.26632 258 ft 13 kts 356°
2026-05-06 21:09 53.35712 -2.26664 259 ft 17 kts 346°
2026-05-06 21:09 53.35886 -2.26696 259 ft 23 kts 347°
2026-05-06 21:09 53.35983 -2.26738 259 ft 11 kts 330°
2026-05-06 21:09 53.36048 -2.26816 259 ft 5 kts 314°
2026-05-06 21:10 53.36055 -2.26829 259 ft 1 kts 314°
2026-05-06 21:10 53.36068 -2.26851 259 ft 0 kts 315°